Regional Weather Roundup
Issued by NWS

Home | Current Version | Previous Version | Graphics & Text | Print | Product List | Glossary On
Versions: 1 2 3 4 5 6 7 8 9 10 11 12 13 14 15 16 17 18 19 20 21 22 23 24 25 26 27 28 29 30 31 32 33 34 35 36 37 38 39 40 41 42 43 44 45 46 47 48 49 50
000
ASUS44 KMEG 271500
RWRTN
TENNESSEE HOURLY STATE WEATHER ROUNDUP
NATIONAL WEATHER SERVICE MEMPHIS TN
1000 AM CDT FRI MAR 27 2015

TNZ002-004-019-021-049-052-054-088>092-271600-
WEST TENNESSEE

CITY           SKY/WX    TMP DP  RH WIND       PRES   REMARKS
MEMPHIS INTL   CLOUDY    47  37  68 NW7       30.10R
NWS MEMPHIS      N/A     45 N/A N/A MISG        N/A
JACKSON        CLOUDY    43  36  76 N9        30.07R
DYERSBURG      PTSUNNY   45  27  49 N5        30.09R
UNION CITY     SUNNY     43  39  87 N9        30.06R
PARIS          MOSUNNY   39  34  81 N6        30.05S WCI  35
LEXINGTON      PTSUNNY   43  34  70 NW8       30.04R
SAVANNAH       SUNNY     43  37  81 N3        30.05S
$$

TNZ008-025-027-028-033-062-065-066-271600-
NORTH MIDDLE TENNESSEE

CITY           SKY/WX    TMP DP  RH WIND       PRES   REMARKS
NASHVILLE      CLOUDY    46  36  68 N8        30.02S
CLARKSVILLE    CLOUDY    41  36  82 N10       30.04R
COOKEVILLE     PTSUNNY   45  34  65 N8        29.96R
CROSSVILLE     CLOUDY    38  27  64 N17G23    29.93R WCI  28
$$

TNZ061-075-076-078-094-096-097-271600-
SOUTH MIDDLE TENNESSEE

CITY           SKY/WX    TMP DP  RH WIND       PRES   REMARKS
FAYETTEVILLE   MOSUNNY   43  30  61 N12       29.98S
TULLAHOMA      PTSUNNY   43  32  65 N12       29.98R
WINCHESTER     CLOUDY    43  32  65 N12       29.98R
COLUMBIA       SUNNY     45  43  93 NW6       30.00S
SHELBYVILLE    MOSUNNY   45  34  65 N12       30.01R
$$

TNZ017-018-042-046-047-271600-
NORTHEAST TENNESSEE

CITY           SKY/WX    TMP DP  RH WIND       PRES   REMARKS
TRI CITIES     CLOUDY    41  34  76 N9G22     29.87R
ELIZABETHTON   LGT RAIN  37  34  87 NW7       29.85R FOG     WCI  32
$$

TNZ012-013-036-069-073-074-271600-
CENTRAL EAST TENNESSEE

CITY           SKY/WX    TMP DP  RH WIND       PRES   REMARKS
KNOXVILLE      CLOUDY    43  32  65 N15G23    29.91R
OAK RIDGE      CLOUDY    46  32  58 N7        29.93F
GATLINBURG     CLOUDY    39  36  87 N9        29.90R WCI  33
$$

TNZ083-085-099-271600-
SOUTHEAST TENNESSEE

CITY           SKY/WX    TMP DP  RH WIND       PRES   REMARKS
CHATTANOOGA    MOSUNNY   47  33  58 NW15      29.93R
$$

SKY/WX REPORTED AS FAIR MEANS FEW OR NO CLOUDS BELOW
12 THOUSAND FEET.



USA.gov is the U.S. government's official web portal to all federal, state and local government web resources and services.